When you browse on this site, cookies collect data to enhance your experience and personalize the content and advertising you see.
Visit our Privacy Policy to learn more. By continuing to use the site, you agree to this use of cookies and data.

Meteo orario Portsmut

Oggi, 5 Luglio, Domenica

Tempo Temperatura Precipitazioni Vento Pressione Umidità
00:00 +24°C° 0 mm 2 m/s 760 mm Hg 87%
01:00 +24°C° 0 mm 1 m/s 760 mm Hg 88%
02:00 +24°C° 0 mm 1 m/s 760 mm Hg 87%
03:00 +22°C° 0 mm 0 m/s 760 mm Hg 87%
04:00 +22°C° 0 mm 0 m/s 760 mm Hg 87%
05:00 +23°C° 0 mm 0 m/s 760 mm Hg 83%
06:00 +26°C° 0 mm 1 m/s 760 mm Hg 80%
07:00 +27°C° 0 mm 1 m/s 760 mm Hg 76%
08:00 +28°C° 0 mm 1 m/s 761 mm Hg 67%
09:00 +30°C° 0 mm 2 m/s 761 mm Hg 57%
10:00 +31°C° 0 mm 2 m/s 761 mm Hg 48%
11:00 +33°C° 0 mm 3 m/s 761 mm Hg 46%
12:00 +34°C° 0 mm 3 m/s 761 mm Hg 44%
13:00 +34°C° 0 mm 4 m/s 761 mm Hg 42%
14:00 +34°C° 0 mm 4 m/s 761 mm Hg 44%
15:00 +34°C° 0 mm 4 m/s 760 mm Hg 46%
16:00 +33°C° 0 mm 4 m/s 760 mm Hg 47%
17:00 +32°C° 0 mm 4 m/s 760 mm Hg 53%
18:00 +29°C° 0 mm 4 m/s 760 mm Hg 59%
19:00 +28°C° 0 mm 4 m/s 761 mm Hg 65%
20:00 +27°C° 0 mm 4 m/s 761 mm Hg 68%
21:00 +26°C° 0 mm 4 m/s 761 mm Hg 71%
22:00 +25°C° 0 mm 4 m/s 761 mm Hg 74%
23:00 +25°C° 0 mm 3 m/s 761 mm Hg 76%

Domani, 6 Luglio, Lunedi

Tempo Temperatura Precipitazioni Vento Pressione Umidità
00:00 +25°C° 0 mm 3 m/s 761 mm Hg 78%
01:00 +25°C° 0 mm 3 m/s 761 mm Hg 80%
02:00 +24°C° 0 mm 2 m/s 761 mm Hg 80%
03:00 +24°C° 0 mm 2 m/s 761 mm Hg 81%
04:00 +24°C° 0 mm 2 m/s 761 mm Hg 82%
05:00 +25°C° 0 mm 2 m/s 762 mm Hg 79%
06:00 +26°C° 0 mm 2 m/s 762 mm Hg 77%
07:00 +27°C° 0 mm 2 m/s 762 mm Hg 74%
08:00 +29°C° 0 mm 2 m/s 762 mm Hg 65%
09:00 +31°C° 0 mm 2 m/s 763 mm Hg 56%
10:00 +34°C° 0 mm 2 m/s 763 mm Hg 48%
11:00 +34°C° 0 mm 3 m/s 762 mm Hg 46%
12:00 +35°C° 0 mm 3 m/s 762 mm Hg 43%
13:00 +36°C° 0 mm 4 m/s 762 mm Hg 41%
14:00 +35°C° 0 mm 4 m/s 762 mm Hg 43%
15:00 +35°C° 0 mm 4 m/s 762 mm Hg 45%
16:00 +35°C° 0 mm 4 m/s 761 mm Hg 46%
17:00 +33°C° 0 mm 4 m/s 762 mm Hg 53%
18:00 +32°C° 0 mm 5 m/s 762 mm Hg 60%
19:00 +29°C° 0 mm 5 m/s 762 mm Hg 67%
20:00 +28°C° 0 mm 4 m/s 762 mm Hg 71%
21:00 +28°C° 0 mm 4 m/s 762 mm Hg 75%
22:00 +27°C° 0 mm 4 m/s 763 mm Hg 79%
23:00 +27°C° 0.1 mm 4 m/s 762 mm Hg 81%

Dopodomani, 7 Luglio, Martedi

Tempo Temperatura Precipitazioni Vento Pressione Umidità
00:00 +27°C° 0.1 mm 3 m/s 762 mm Hg 83%
01:00 +26°C° 0.1 mm 3 m/s 762 mm Hg 86%
02:00 +26°C° 0 mm 3 m/s 762 mm Hg 86%
03:00 +25°C° 0 mm 3 m/s 762 mm Hg 86%
04:00 +25°C° 0 mm 2 m/s 762 mm Hg 86%
05:00 +26°C° 0 mm 2 m/s 762 mm Hg 82%
06:00 +26°C° 0 mm 2 m/s 763 mm Hg 79%
07:00 +27°C° 0 mm 3 m/s 763 mm Hg 76%
08:00 +28°C° 0 mm 3 m/s 763 mm Hg 69%
09:00 +30°C° 0 mm 3 m/s 763 mm Hg 62%
10:00 +33°C° 0 mm 3 m/s 763 mm Hg 55%
11:00 +34°C° 0 mm 3 m/s 762 mm Hg 53%
12:00 +34°C° 0 mm 3 m/s 762 mm Hg 50%
13:00 +35°C° 0 mm 4 m/s 762 mm Hg 47%
14:00 +35°C° 0 mm 4 m/s 762 mm Hg 49%
15:00 +35°C° 0 mm 5 m/s 761 mm Hg 51%
16:00 +35°C° 0 mm 5 m/s 761 mm Hg 53%
17:00 +33°C° 0.1 mm 5 m/s 761 mm Hg 59%
18:00 +32°C° 0.1 mm 4 m/s 761 mm Hg 66%
19:00 +30°C° 0.1 mm 4 m/s 761 mm Hg 72%
20:00 +29°C° 0 mm 4 m/s 761 mm Hg 75%
21:00 +28°C° 0 mm 4 m/s 762 mm Hg 78%
22:00 +27°C° 0 mm 4 m/s 762 mm Hg 81%
23:00 +27°C° 0 mm 4 m/s 761 mm Hg 82%

8 Luglio, Mercoledi

Tempo Temperatura Precipitazioni Vento Pressione Umidità
00:00 +27°C° 0 mm 4 m/s 761 mm Hg 83%
01:00 +27°C° 0 mm 4 m/s 761 mm Hg 83%
02:00 +26°C° 0 mm 3 m/s 761 mm Hg 84%
03:00 +26°C° 0 mm 3 m/s 761 mm Hg 85%
04:00 +26°C° 0 mm 3 m/s 761 mm Hg 86%
05:00 +27°C° 0 mm 3 m/s 761 mm Hg 83%
06:00 +27°C° 0 mm 3 m/s 761 mm Hg 80%
07:00 +28°C° 0 mm 3 m/s 761 mm Hg 78%
08:00 +30°C° 0 mm 3 m/s 761 mm Hg 71%
09:00 +31°C° 0 mm 3 m/s 761 mm Hg 65%
10:00 +33°C° 0 mm 3 m/s 761 mm Hg 59%
11:00 +34°C° 0 mm 3 m/s 761 mm Hg 57%
12:00 +35°C° 0 mm 3 m/s 760 mm Hg 55%
13:00 +35°C° 0 mm 4 m/s 760 mm Hg 52%
14:00 +35°C° 0.2 mm 4 m/s 760 mm Hg 57%
15:00 +34°C° 0.2 mm 4 m/s 759 mm Hg 61%
16:00 +33°C° 0.2 mm 4 m/s 759 mm Hg 65%
17:00 +32°C° 0 mm 4 m/s 759 mm Hg 68%
18:00 +30°C° 0 mm 4 m/s 759 mm Hg 71%
19:00 +30°C° 0 mm 3 m/s 759 mm Hg 74%
20:00 +29°C° 0 mm 3 m/s 760 mm Hg 76%
21:00 +28°C° 0 mm 3 m/s 760 mm Hg 79%
22:00 +28°C° 0 mm 3 m/s 760 mm Hg 82%
23:00 +27°C° 0 mm 4 m/s 760 mm Hg 84%

9 Luglio, Giovedi

Tempo Temperatura Precipitazioni Vento Pressione Umidità
00:00 +27°C° 0 mm 4 m/s 760 mm Hg 86%
01:00 +26°C° 0 mm 4 m/s 760 mm Hg 89%
02:00 +26°C° 0 mm 3 m/s 760 mm Hg 89%
03:00 +26°C° 0 mm 3 m/s 760 mm Hg 89%
04:00 +26°C° 0 mm 2 m/s 760 mm Hg 89%
05:00 +27°C° 0 mm 3 m/s 760 mm Hg 85%
06:00 +28°C° 0 mm 4 m/s 760 mm Hg 82%
07:00 +28°C° 0 mm 4 m/s 760 mm Hg 78%
08:00 +29°C° 0 mm 5 m/s 760 mm Hg 74%
09:00 +30°C° 0 mm 5 m/s 760 mm Hg 69%
10:00 +32°C° 0 mm 6 m/s 760 mm Hg 65%
11:00 +32°C° 0.1 mm 6 m/s 760 mm Hg 67%
12:00 +32°C° 0.1 mm 7 m/s 759 mm Hg 68%
13:00 +32°C° 0.1 mm 7 m/s 759 mm Hg 70%
14:00 +30°C° 0.7 mm 7 m/s 759 mm Hg 72%
15:00 +30°C° 0.7 mm 7 m/s 759 mm Hg 74%
16:00 +29°C° 0.7 mm 6 m/s 759 mm Hg 77%
17:00 +29°C° 0 mm 6 m/s 759 mm Hg 78%
18:00 +28°C° 0 mm 6 m/s 759 mm Hg 79%
19:00 +28°C° 0 mm 6 m/s 759 mm Hg 80%
20:00 +28°C° 0.1 mm 6 m/s 759 mm Hg 82%
21:00 +27°C° 0.1 mm 6 m/s 759 mm Hg 84%
22:00 +27°C° 0.1 mm 6 m/s 759 mm Hg 86%
23:00 +27°C° 0.2 mm 6 m/s 759 mm Hg 87%

10 Luglio, Venerdi

Tempo Temperatura Precipitazioni Vento Pressione Umidità
00:00 +27°C° 0.2 mm 6 m/s 758 mm Hg 89%
01:00 +27°C° 0.2 mm 6 m/s 758 mm Hg 90%
02:00 +26°C° 1.2 mm 5 m/s 758 mm Hg 91%
03:00 +26°C° 1.2 mm 5 m/s 758 mm Hg 92%
04:00 +26°C° 1.2 mm 4 m/s 757 mm Hg 93%
05:00 +26°C° 2.8 mm 5 m/s 758 mm Hg 92%
06:00 +27°C° 2.8 mm 5 m/s 758 mm Hg 91%
07:00 +27°C° 2.8 mm 6 m/s 758 mm Hg 90%
08:00 +27°C° 10.3 mm 6 m/s 758 mm Hg 91%
09:00 +27°C° 10.3 mm 7 m/s 758 mm Hg 92%
10:00 +26°C° 10.3 mm 7 m/s 758 mm Hg 94%
11:00 +27°C° 5.5 mm 7 m/s 758 mm Hg 91%
12:00 +27°C° 5.5 mm 8 m/s 757 mm Hg 89%
13:00 +28°C° 5.5 mm 8 m/s 757 mm Hg 87%
14:00 +28°C° 1.3 mm 8 m/s 757 mm Hg 88%
15:00 +28°C° 1.3 mm 7 m/s 756 mm Hg 88%
16:00 +27°C° 1.3 mm 7 m/s 756 mm Hg 89%
17:00 +27°C° 1 mm 6 m/s 756 mm Hg 89%
18:00 +27°C° 1 mm 6 m/s 756 mm Hg 89%
19:00 +27°C° 1 mm 5 m/s 755 mm Hg 89%
20:00 +27°C° 0.8 mm 5 m/s 755 mm Hg 90%
21:00 +27°C° 0.8 mm 6 m/s 755 mm Hg 91%
22:00 +27°C° 0.8 mm 6 m/s 755 mm Hg 91%
23:00 +27°C° 0 mm 6 m/s 755 mm Hg 92%
Mostrare altro